Weather History for Athens, GA

Change the Weather History Date:

Tuesday, July 16, 2013

  Actual Average Record
Temperature  
Mean Temperature 80 °F 81 °F  
Max Temperature 89 °F 92 °F 102 °F (1980)
Min Temperature 70 °F 70 °F 57 °F (1967)
Cooling Degree Days 15 16  
Month to date cooling degree days 197 249  
Year to date cooling degree days 743 867  
Since 1 June cooling degree days 564 627  
Growing Degree Days 29 (Base 50)    
Moisture  
Dew Point 71 °F    
Average Humidity 78    
Maximum Humidity 100    
Minimum Humidity 55    
Precipitation  
Precipitation 0.00 in 0.14 in 2.03 in (1911)
Month to date precipitation 6.95 2.33  
Year to date precipitation 38.24 25.62  
Sea Level Pressure  
Sea Level Pressure 30.29 in    
Wind  
Wind Speed 3 mph (ENE)    
Max Wind Speed 8 mph    
Max Gust Speed 13 mph    
Visibility 6 miles    
Events Fog    
T = Trace of Precipitation, MM = Missing Value Source: NWS Daily Summary

Daily Weather History Graph

Daily Weather History Graph

Search for Another Location

Airport:

Trip Planner

Search our weather history database for the weather conditions in past years. The results will help you decide how hot, cold, wet, or windy it might be!

Date:

Astronomy

Jul. 16, 2013 Rise Set
Actual Time 6:34 AM EDT 8:44 PM EDT
Civil Twilight 6:05 AM EDT 9:12 PM EDT
Nautical Twilight 5:30 AM EDT 9:47 PM EDT
Astronomical Twilight 4:53 AM EDT 10:24 PM EDT
Moon 2:31 PM EDT (7/16) 12:54 AM EDT (7/16)
Length of Visible Light 15h 07m
Length of Day
14h 10m
First Quarter, 56% of the Moon is Illuminated
Jul 16
First Quarter
Jul 22
Full
Jul 29
Last Quarter
Aug 6
New
Aug 14
First Quarter

Hourly Weather History & Observations

Time (EDT) Temp. Heat Index Dew Point Humidity Pressure Visibility Wind Dir Wind Speed Gust Speed Precip Events Conditions
12:51 AM 70.0 °F - 68.0 °F 93% 30.29 in 10.0 mi ENE 3.5 mph - N/A   Clear
1:51 AM 70.0 °F - 69.1 °F 97% 30.29 in 9.0 mi ENE 3.5 mph - N/A   Clear
2:51 AM 70.0 °F - 69.1 °F 97% 30.27 in 7.0 mi ENE 3.5 mph - N/A   Clear
3:51 AM 70.0 °F - 69.1 °F 97% 30.28 in 6.0 mi ENE 5.8 mph - N/A   Clear
4:51 AM 70.0 °F - 70.0 °F 100% 30.28 in 5.0 mi ENE 4.6 mph - N/A   Scattered Clouds
5:01 AM 69.8 °F - 69.8 °F 100% 30.30 in 4.0 mi ENE 4.6 mph - N/A   Mostly Cloudy
5:14 AM 71.6 °F - 69.8 °F 94% 30.29 in 1.8 mi ENE 4.6 mph - N/A   Overcast
5:23 AM 71.6 °F - 69.8 °F 94% 30.30 in 1.2 mi ENE 5.8 mph - N/A   Overcast
5:47 AM 71.6 °F - 71.6 °F 100% 30.30 in 0.5 mi East 3.5 mph - N/A Fog Fog
5:51 AM 71.1 °F - 71.1 °F 100% 30.28 in 0.5 mi ENE 4.6 mph - N/A Fog Fog
6:51 AM 71.1 °F - 71.1 °F 100% 30.29 in 0.2 mi ENE 5.8 mph - N/A Fog Fog
7:51 AM 72.0 °F - 72.0 °F 100% 30.30 in 0.2 mi ENE 4.6 mph - N/A Fog Fog
8:51 AM 72.0 °F - 72.0 °F 100% 30.32 in 0.2 mi ENE 3.5 mph - N/A Fog Fog
9:04 AM 71.6 °F - 71.6 °F 100% 30.34 in 1.0 mi NE 3.5 mph - N/A   Overcast
9:23 AM 73.4 °F - 73.4 °F 100% 30.34 in 1.8 mi Calm Calm - N/A   Overcast
9:40 AM 73.4 °F - 71.6 °F 94% 30.34 in 2.5 mi Calm Calm - N/A   Overcast
9:51 AM 73.0 °F - 73.0 °F 100% 30.33 in 3.0 mi Calm Calm - N/A   Overcast
10:05 AM 73.4 °F - 71.6 °F 94% 30.34 in 4.0 mi Calm Calm - N/A   Overcast
10:20 AM 75.2 °F - 71.6 °F 89% 30.34 in 5.0 mi Variable 3.5 mph - N/A   Overcast
10:44 AM 78.8 °F - 71.6 °F 78% 30.34 in 7.0 mi ENE 5.8 mph - N/A   Mostly Cloudy
10:51 AM 78.1 °F - 71.1 °F 79% 30.32 in 8.0 mi East 4.6 mph - N/A   Scattered Clouds
11:25 AM 80.6 °F 84.6 °F 71.6 °F 74% 30.34 in 9.0 mi Variable 3.5 mph - N/A   Mostly Cloudy
11:51 AM 82.9 °F 88.0 °F 72.0 °F 69% 30.31 in 9.0 mi Variable 4.6 mph - N/A   Mostly Cloudy
12:03 PM 80.6 °F 84.6 °F 71.6 °F 74% 30.33 in 9.0 mi East 4.6 mph - N/A   Scattered Clouds
12:51 PM 84.0 °F 89.0 °F 71.1 °F 65% 30.31 in 10.0 mi Calm Calm - N/A   Scattered Clouds
1:51 PM 84.9 °F 89.4 °F 70.0 °F 61% 30.29 in 10.0 mi Variable 3.5 mph - N/A   Scattered Clouds
2:51 PM 87.1 °F 91.3 °F 69.1 °F 55% 30.27 in 10.0 mi Variable 4.6 mph - N/A   Partly Cloudy
3:51 PM 86.0 °F 90.7 °F 70.0 °F 59% 30.26 in 10.0 mi Variable 4.6 mph - N/A   Scattered Clouds
4:51 PM 87.1 °F 92.0 °F 70.0 °F 57% 30.25 in 10.0 mi East 5.8 mph - N/A   Scattered Clouds
5:51 PM 86.0 °F 90.7 °F 70.0 °F 59% 30.24 in 10.0 mi ESE 4.6 mph - N/A   Scattered Clouds
6:51 PM 86.0 °F 89.4 °F 68.0 °F 55% 30.24 in 10.0 mi East 3.5 mph - N/A   Clear
7:51 PM 84.0 °F 87.8 °F 69.1 °F 61% 30.24 in 10.0 mi Calm Calm - N/A   Clear
8:51 PM 78.1 °F - 70.0 °F 76% 30.25 in 10.0 mi Calm Calm - N/A   Clear
9:51 PM 75.9 °F - 70.0 °F 82% 30.26 in 10.0 mi Calm Calm - N/A   Clear
10:51 PM 73.9 °F - 71.1 °F 91% 30.27 in 10.0 mi Calm Calm - N/A   Clear
11:51 PM 73.0 °F - 71.1 °F 93% 30.27 in 10.0 mi Calm Calm - N/A   Clear